Regional Weather Roundup
Issued by NWS Kansas City/Pleasant Hill, MO

Home | Current Version | Previous Version | Text Only | Print | Product List | Glossary On
Versions: 1 2 3 4 5 6 7 8 9 10 11 12 13 14 15 16 17 18 19 20 21 22 23 24 25 26 27 28 29 30 31 32 33 34 35 36 37 38 39 40 41 42 43 44 45 46 47 48 49 50
000
ASUS43 KEAX 262010
RWREAX

WEATHER ROUNDUP FOR EASTERN KANSAS AND NORTHWEST MISSOURI
NATIONAL WEATHER SERVICE KANSAS CITY/PLEASANT HILL MO
300 PM CDT FRI AUG 26 2016

KSZ040-057-103>105-MOZ028-029-037-043-262100-
...KANSAS CITY METROPOLITAN AREA...

CITY           SKY/WX    TMP DP  RH WIND       PRES   REMARKS
K.C. INTL      CLOUDY    83  68  60 S9        30.05F
K.C. DOWNTOWN  MOSUNNY   85  68  56 VRB3      30.03F
LEES SUMMIT    PTSUNNY   82  69  64 SE8       30.05F
OLATHE - IXD   PTSUNNY   81  69  67 SE3       30.06F
OLATHE - OJC   PTSUNNY   80  69  69 SE6       30.05F
LAWRENCE       PTSUNNY   83  70  64 SE12      30.03F

$$

MOZ001>008-011>017-020>025-030>033-038>040-044>046-053-054-262100-
...NORTHERN AND CENTRAL MISSOURI...

CITY           SKY/WX    TMP DP  RH WIND       PRES   REMARKS
ST. JOSEPH     PTSUNNY   79  69  71 NE5       30.05F
MOSBY          MOCLDY    81  68  65 SE3       30.05F
WHITEMAN AFB   PTSUNNY   78  77  96 VRB3      30.04F
CLINTON        PTSUNNY   82  73  74 CALM      30.05F
SEDALIA        CLOUDY    79  72  79 E6        30.07F
WARSAW         NOT AVBL
CHILLICOTHE      N/A     78  70  76 SE7       30.07F
KIRKSVILLE     CLOUDY    76  69  79 E7        30.08F

$$

MOZ041-047>049-056>058-063>065-088>090-097-262100-
...EASTERN AND SOUTHERN MISSOURI...

CITY           SKY/WX    TMP DP  RH WIND       PRES   REMARKS
ST. LOUIS INTL CLOUDY    87  73  62 NW7       30.05F HX  94
SPIRIT OF STL  CLOUDY    85  74  69 VRB3      30.03F HX  92
COLUMBIA       CLOUDY    80  73  79 SE6       30.07F
JEFFERSON CITY CLOUDY    79  74  84 E6        30.05F
ROLLA          CLOUDY    81  72  74 CALM      30.07F
OSAGE BEACH    LGT RAIN  77  74  90 CALM      30.07F
SPRINGFIELD    CLOUDY    80  71  74 S7        30.07F
BRANSON        PTSUNNY   84  68  58 SW6       30.10F
JOPLIN         PTSUNNY   80  72  76 S8        30.06F
WEST PLAINS    SUNNY     86  69  56 VRB3      30.09F HX  90

$$

IAZ060-094-KSZ022-034>040-054-083-096-NEZ052-066-093-262100-
...KANSAS...SOUTHEAST NEBRASKA AND IOWA...

CITY           SKY/WX    TMP DP  RH WIND       PRES   REMARKS
TOPEKA         MOSUNNY   80  72  76 E6        30.02F
MANHATTAN      PTSUNNY   81  68  64 S8        30.02F
EMPORIA        PTSUNNY   84  67  56 S16       30.04F
CHANUTE        PTSUNNY   86  72  62 S6        30.03F HX  92
WICHITA        PTSUNNY   81  66  60 S3        30.03F
OMAHA          CLOUDY    68  62  81 E7        30.09F
LINCOLN        CLOUDY    68  63  84 E6        30.09F
FALLS CITY     PTSUNNY   75  69  81 E6        30.05F
LAMONI         CLOUDY    74  66  76 CALM      30.09F
DES MOINES     CLOUDY    72  64  76 E8        30.11R

$$




USA.gov is the U.S. government's official web portal to all federal, state and local government web resources and services.